This demonstration page uses our WeatherBlox Daily Observations layout. Learn more.

Left ArrowRight Arrow

Hourly Observations for January 4, 2017

Temp ( °F °C ) Dew Point ( °F °C ) Humidity (%) Winds ( mph kmh ) Pressure ( in mb ) Visibility ( mi km ) Precip ( " mm )
12:53 am 00:53 Partly Cloudy 8 -13.3 -2 -18.9 63 63 N 12 19 30.44 1031 10 16 0.00 0.00
1:53 am 01:53 Cloudy 8 -13.3 -2 -18.9 63 63 N 14 22 30.42 1030 10 16 0.00 0.00
2:53 am 02:53 Cloudy 8 -13.3 -2 -18.9 63 63 N 13 20 30.42 1030 10 16 0.00 0.00
3:53 am 03:53 Cloudy 8 -13.3 -2 -18.9 63 63 N 10 17 30.42 1030 10 16 0.00 0.00
4:51 am 04:51 Cloudy with Light Snow 9 -13 0 -18 66 66 NNW 13 20 30.53 1034 3 4 0.00 0.00
4:53 am 04:53 Cloudy with Light Snow 8 -13.3 0 -17.8 69 69 NNW 13 20 30.43 1030 2 3 0.00 0.00
5:04 am 05:04 Cloudy with Light Snow 9 -13 1 -17 72 72 N 12 19 30.53 1034 2 3 0.00 0.00
5:13 am 05:13 Cloudy with Light Snow 9 -13 1 -17 72 72 NNW 12 19 30.50 1033 2 3 0.00 0.00
5:20 am 05:20 Cloudy with Light Snow 9 -13 1 -17 72 72 NNW 9 15 30.53 1034 2 3 0.00 0.00
5:33 am 05:33 Cloudy with Light Snow 8 -13.3 3 -16.1 80 80 N 8 13 30.53 1034 2 3 0.00 0.00
5:46 am 05:46 Cloudy with Light Snow 9 -13 3 -16 78 78 N 8 13 30.50 1033 2 3 0.00 0.00
5:53 am 05:53 Cloudy with Light Snow 8 -13.3 3 -16.1 80 80 N 8 13 30.43 1030 2 3 0.00 0.00
6:09 am 06:09 Cloudy with Light Snow 8 -13.3 3 -16.1 80 80 NNW 10 17 30.50 1033 2 3 0.00 0.00
6:17 am 06:17 Cloudy with Light Snow 9 -13 3 -16 78 78 N 9 15 30.50 1033 2 3 0.00 0.00
6:35 am 06:35 Cloudy with Light Snow 8 -13.3 3 -16.1 80 80 N 8 13 30.50 1033 3 5 0.00 0.00
6:53 am 06:53 Cloudy with Light Snow 8 -13.3 3 -16.1 80 80 N 8 13 30.41 1030 3 5 0.00 0.00
7:05 am 07:05 Cloudy with Light Snow 8 -13.3 3 -16.1 80 80 N 7 11 30.50 1033 4 6 0.00 0.00
7:53 am 07:53 Cloudy with Light Snow 8 -13.3 3 -16.1 80 80 N 8 13 30.42 1030 5 8 0.00 0.00
8:53 am 08:53 Cloudy with Light Snow 8 -13.3 3 -16.1 80 80 N 8 13 30.40 1029 8 13 0.00 0.00
9:53 am 09:53 Cloudy 9 -12.8 3 -16.1 77 77 N 7 11 30.40 1029 10 16 0.00 0.00
10:53 am 10:53 Cloudy 10 -12.2 1 -17.2 67 67 N 6 9 30.38 1029 10 16 0.00 0.00
11:53 am 11:53 Cloudy 12 -11.1 2 -16.7 64 64 N 5 7 30.37 1028 10 16 0.00 0.00
12:53 pm 12:53 Cloudy 12 -11.1 2 -16.7 64 64 N 5 7 30.31 1026 10 16 0.00 0.00
1:53 pm 13:53 Cloudy with Light Snow 12 -11.1 1 -17.2 61 61 NNE 5 7 30.27 1025 5 8 0.00 0.00
2:53 pm 14:53 Cloudy with Light Snow 12 -11.1 2 -16.7 64 64 NE 7 11 30.24 1024 7 11 0.00 0.00
3:53 pm 15:53 Cloudy with Light Snow 11 -11.7 4 -15.6 73 73 NE 10 17 30.24 1024 4 6 0.00 0.00
4:41 pm 16:41 Cloudy with Light Snow 11 -11.7 4 -15.6 73 73 NE 9 15 30.30 1026 2 3 0.00 0.00
4:53 pm 16:53 Cloudy with Light Snow 11 -11.7 4 -15.6 73 73 NNE 9 15 30.26 1025 2 3 0.00 0.00
5:06 pm 17:06 Cloudy with Light Snow 10 -12 5 -15 79 79 NE 8 13 30.30 1026 2 3 0.00 0.00
5:25 pm 17:25 Cloudy with Light Snow 11 -11.7 5 -15 77 77 NE 10 17 30.30 1026 3 5 0.00 0.00
5:53 pm 17:53 Cloudy with Light Snow 10 -12.2 5 -15 80 80 NNE 9 15 30.23 1024 3 4 0.00 0.00
6:11 pm 18:11 Cloudy with Light Snow 10 -12.2 5 -15 80 80 NNE 10 17 30.30 1026 2 2 0.00 0.00
6:41 pm 18:41 Cloudy with Light Snow 10 -12.2 5 -15 80 80 NNE 8 13 30.33 1027 2 3 0.00 0.00
6:53 pm 18:53 Cloudy with Light Snow 10 -12.2 5 -15 80 80 NNE 9 15 30.26 1025 2 3 0.00 0.00
7:14 pm 19:14 Cloudy with Light Snow 10 -12 7 -14 85 85 NNE 9 15 30.33 1027 2 3 0.00 0.00
7:53 pm 19:53 Cloudy with Light Snow 9 -12.8 5 -15 84 84 NNE 10 17 30.26 1025 1 2 0.00 0.00
8:04 pm 20:04 Cloudy with Light Snow 9 -13 5 -15 85 85 N 10 17 30.33 1027 1 2 0.00 0.00
8:15 pm 20:15 Cloudy with Light Snow 9 -13 5 -15 85 85 N 9 15 30.33 1027 1 2 0.00 0.00
8:23 pm 20:23 Mostly Cloudy with Light Snow 9 -13 5 -15 85 85 N 12 19 30.33 1027 1 2 0.00 0.00
8:30 pm 20:30 Mostly Cloudy with Snow 9 -13 5 -15 85 85 N 10 17 30.33 1027 1 1 0.00 0.00
8:44 pm 20:44 Mostly Cloudy with Light Snow 9 -13 5 -15 85 85 N 9 15 30.33 1027 1 2 0.00 0.00
8:53 pm 20:53 Cloudy with Light Snow 9 -12.8 5 -15 84 84 N 8 13 30.29 1026 2 2 0.01 0.25
9:00 pm 21:00 Cloudy with Light Snow 9 -13 5 -15 85 85 NNW 8 13 30.36 1028 2 3 0.00 0.00
9:13 pm 21:13 Cloudy with Light Snow 9 -12.8 5 -15 84 84 N 8 13 30.33 1027 2 2 0.00 0.00
9:25 pm 21:25 Mostly Cloudy with Light Snow 9 -12.8 5 -15 84 84 NNW 8 13 30.33 1027 1 2 0.00 0.00
9:32 pm 21:32 Mostly Cloudy with Light Snow 9 -13 5 -15 85 85 N 8 13 30.33 1027 1 1 0.00 0.00
9:37 pm 21:37 Mostly Cloudy with Light Snow 9 -12.8 5 -15 84 84 N 8 13 30.33 1027 1 2 0.01 0.25
9:53 pm 21:53 Cloudy with Light Snow 9 -12.8 5 -15 84 84 N 7 11 30.27 1025 2 2 0.01 0.25
10:23 pm 22:23 Cloudy with Light Snow 8 -13.3 4 -15.6 83 83 N 8 13 30.30 1026 2 3 0.01 0.25
10:31 pm 22:31 Cloudy with Light Snow 7 -13.9 4 -15.6 87 87 N 7 11 30.33 1027 3 5 0.01 0.25
10:53 pm 22:53 Cloudy with Light Snow 5 -15 1 -17.2 83 83 NNW 7 11 30.27 1025 5 8 0.01 0.25
11:53 pm 23:53 Clear 1 -17.2 -3 -19.4 83 83 WNW 3 6 30.26 1025 10 16 0.00 0.00

Powered by AerisWeather